Clarksville, TX

12:50 PM CDT on April 21, 2018 (GMT -0500)
Clarksville

Weather History for KLBR - August, 2013

Change the Weather History Date:

Thursday, August 29, 2013

  Actual Average (KPRX) Record (KPRX)
Temperature  
Mean Temperature 88 °F -  
Max Temperature 102 °F 89 °F 100 °F (2013)
Min Temperature 75 °F 68 °F 68 °F (2004)
Cooling Degree Days 24    
Growing Degree Days 38 (Base 50)    
Moisture  
Dew Point 63 °F    
Average Humidity 46    
Maximum Humidity 71    
Minimum Humidity 22    
Precipitation  
Precipitation 0.00 in - - ()
Sea Level Pressure  
Sea Level Pressure 30.02 in    
Wind  
Wind Speed 2 mph (ESE)    
Max Wind Speed 7 mph    
Max Gust Speed -    
Visibility 7 miles    
Events      
Averages and records for this station are not official NWS values.
T = Trace of Precipitation, MM = Missing Value Source: NWS Daily Summary

Daily Weather History Graph

Daily Weather History Graph

Search for Another Location

Airport or City:

Astronomy

Aug. 29, 2013 Rise Set
Actual Time 6:52 AM CDT 7:49 PM CDT
Civil Twilight 6:26 AM CDT 8:14 PM CDT
Nautical Twilight 5:56 AM CDT 8:44 PM CDT
Astronomical Twilight 5:25 AM CDT 9:15 PM CDT
Moon 12:53 AM CDT (8/29) 3:10 PM CDT (8/29)
Length of Visible Light 13h 47m
Length of Day
12h 56m
Last Quarter, 38% of the Moon is Illuminated
Aug 29
Last Quarter
Sep 5
New
Sep 12
First Quarter
Sep 19
Full
Sep 26
Last Quarter

Hourly Weather History & Observations

Time (CDT) Temp. Heat Index Dew Point Humidity Pressure Visibility Wind Dir Wind Speed Gust Speed Precip Events Conditions
12:15 AM 79.2 °F - 66.0 °F 64% 30.03 in 10.0 mi Calm Calm - N/A   Clear
12:35 AM 79.9 °F - 65.3 °F 61% 30.03 in 10.0 mi Calm Calm - N/A   Clear
12:55 AM 78.8 °F - 65.5 °F 64% 30.03 in 10.0 mi Calm Calm - N/A   Clear
1:15 AM 77.7 °F - 65.3 °F 65% 30.03 in 10.0 mi Calm Calm - N/A   Clear
1:35 AM 77.9 °F - 65.5 °F 65% 30.03 in 7.0 mi Calm Calm - N/A   Clear
1:55 AM 79.7 °F - 64.6 °F 60% 30.03 in 10.0 mi SE 4.6 mph - N/A   Clear
2:15 AM 80.8 °F 82.4 °F 64.4 °F 57% 30.03 in 10.0 mi ESE 4.6 mph - N/A   Clear
2:35 AM 80.4 °F 82.1 °F 64.6 °F 58% 30.03 in 10.0 mi East 3.5 mph - N/A   Clear
2:55 AM 79.9 °F - 64.6 °F 59% 30.03 in 10.0 mi ESE 3.5 mph - N/A   Clear
3:15 AM 79.7 °F - 64.6 °F 60% 30.03 in 10.0 mi Calm Calm - N/A   Clear
3:35 AM 77.9 °F - 64.8 °F 64% 30.03 in 10.0 mi Calm Calm - N/A   Clear
3:55 AM 78.3 °F - 64.8 °F 63% 30.03 in 10.0 mi Calm Calm - N/A   Clear
4:15 AM 78.1 °F - 64.8 °F 63% 30.04 in 10.0 mi Calm Calm - N/A   Clear
4:35 AM 77.0 °F - 64.9 °F 66% 30.04 in 7.0 mi Calm Calm - N/A   Clear
4:55 AM 77.4 °F - 64.8 °F 65% 30.05 in 7.0 mi Calm Calm - N/A   Clear
5:15 AM 76.8 °F - 64.9 °F 67% 30.05 in 7.0 mi Calm Calm - N/A   Clear
5:35 AM 76.3 °F - 64.9 °F 68% 30.05 in 7.0 mi Calm Calm - N/A   Clear
5:55 AM 75.9 °F - 64.9 °F 69% 30.06 in 7.0 mi Calm Calm - N/A   Clear
6:15 AM 75.0 °F - 64.9 °F 71% 30.06 in 10.0 mi Calm Calm - N/A   Clear
6:35 AM 75.7 °F - 65.1 °F 69% 30.06 in 7.0 mi Calm Calm - N/A   Clear
6:55 AM 75.2 °F - 65.1 °F 71% 30.06 in 10.0 mi Calm Calm - N/A   Clear
7:15 AM 75.6 °F - 65.3 °F 70% 30.06 in 7.0 mi SE 3.5 mph - N/A   Clear
7:35 AM 76.3 °F - 65.7 °F 70% 30.06 in 5.0 mi Calm Calm - N/A   Clear
7:55 AM 78.1 °F - 66.0 °F 66% 30.07 in 10.0 mi Calm Calm - N/A   Clear
8:15 AM 79.9 °F - 66.2 °F 63% 30.08 in 7.0 mi Calm Calm - N/A   Clear
8:35 AM 82.0 °F 84.3 °F 66.2 °F 59% 30.08 in 3.0 mi SSE 3.5 mph - N/A   Clear
8:55 AM 82.8 °F 84.9 °F 66.2 °F 57% 30.08 in 2.5 mi South 3.5 mph - N/A   Clear
9:15 AM 84.6 °F 86.8 °F 66.4 °F 54% 30.09 in 7.0 mi South 3.5 mph - N/A   Clear
9:35 AM 85.8 °F 88.2 °F 66.4 °F 52% 30.08 in 7.0 mi South 3.5 mph - N/A   Clear
9:55 AM 86.9 °F 89.3 °F 66.4 °F 50% 30.08 in 10.0 mi Calm Calm - N/A   Clear
10:15 AM 88.2 °F 90.6 °F 66.4 °F 48% 30.08 in 7.0 mi Calm Calm - N/A   Clear
10:35 AM 90.1 °F 92.3 °F 65.8 °F 44% 30.08 in 7.0 mi Calm Calm - N/A   Clear
10:55 AM 92.7 °F 94.9 °F 65.3 °F 40% 30.08 in 7.0 mi Calm Calm - N/A   Clear
11:15 AM 94.1 °F 95.5 °F 63.3 °F 36% 30.08 in 4.0 mi SSE 4.6 mph - N/A   Clear
11:35 AM 95.5 °F 96.5 °F 62.6 °F 33% 30.07 in 7.0 mi SSE 3.5 mph - N/A   Clear
11:55 AM 96.3 °F 97.2 °F 62.2 °F 32% 30.07 in 7.0 mi SSW 3.5 mph - N/A   Clear
12:15 PM 97.2 °F 98.1 °F 61.7 °F 31% 30.06 in 7.0 mi Calm Calm - N/A   Clear
12:35 PM 97.3 °F 97.5 °F 60.3 °F 29% 30.05 in 10.0 mi WSW 3.5 mph - N/A   Clear
12:55 PM 97.3 °F 97.0 °F 59.2 °F 28% 30.05 in 5.0 mi NNW 3.5 mph - N/A   Scattered Clouds
1:15 PM 98.2 °F 98.4 °F 59.5 °F 28% 30.04 in 7.0 mi Calm Calm - N/A   Clear
1:35 PM 98.8 °F 98.3 °F 58.8 °F 26% 30.03 in 7.0 mi Calm Calm - N/A   Clear
1:55 PM 98.8 °F 98.3 °F 58.8 °F 26% 30.02 in 7.0 mi Calm Calm - N/A   Clear
2:15 PM 99.1 °F 98.4 °F 57.9 °F 25% 30.01 in 5.0 mi East 5.8 mph - N/A   Clear
2:35 PM 100.4 °F 99.7 °F 57.6 °F 24% 30.00 in 1.5 mi Calm Calm - N/A   Unknown
2:55 PM 100.6 °F 100.0 °F 57.4 °F 24% 30.00 in 2.5 mi Calm Calm - N/A   Clear
3:15 PM 100.8 °F 99.8 °F 56.7 °F 23% 29.99 in 5.0 mi SSE 5.8 mph - N/A   Clear
3:35 PM 102.4 °F 101.6 °F 57.0 °F 22% 29.98 in 5.0 mi ESE 5.8 mph - N/A   Clear
3:55 PM 102.0 °F 101.1 °F 56.7 °F 22% 29.98 in 4.0 mi East 5.8 mph - N/A   Clear
4:15 PM 101.3 °F 100.6 °F 56.8 °F 23% 29.98 in 5.0 mi Calm Calm - N/A   Clear
4:35 PM 102.2 °F 101.4 °F 56.1 °F 22% 29.97 in 5.0 mi ENE 6.9 mph - N/A   Clear
4:55 PM 101.8 °F 100.8 °F 56.1 °F 22% 29.96 in 7.0 mi East 3.5 mph - N/A   Clear
5:15 PM 100.4 °F 99.7 °F 57.6 °F 24% 29.96 in 7.0 mi ENE 5.8 mph - N/A   Clear
5:35 PM 100.6 °F 100.0 °F 57.4 °F 24% 29.96 in 7.0 mi ENE 3.5 mph - N/A   Clear
5:55 PM 100.4 °F 100.2 °F 58.3 °F 25% 29.96 in 7.0 mi ESE 5.8 mph - N/A   Clear
6:15 PM 98.1 °F 98.1 °F 59.5 °F 28% 29.96 in 7.0 mi ENE 6.9 mph - N/A   Clear
6:35 PM 97.7 °F 98.0 °F 60.3 °F 29% 29.96 in 4.0 mi ENE 6.9 mph - N/A   Clear
6:55 PM 97.3 °F 97.5 °F 60.3 °F 29% 29.96 in 10.0 mi East 5.8 mph - N/A   Clear
7:15 PM 96.3 °F 96.7 °F 61.0 °F 31% 29.96 in 4.0 mi East 3.5 mph - N/A   Clear
7:35 PM 94.8 °F 94.9 °F 61.0 °F 32% 29.96 in 7.0 mi East 3.5 mph - N/A   Clear
7:55 PM 93.0 °F 93.4 °F 61.3 °F 35% 29.97 in 10.0 mi Calm Calm - N/A   Clear
8:15 PM 91.8 °F 91.9 °F 61.2 °F 36% 29.97 in 7.0 mi Calm Calm - N/A   Clear
8:35 PM 90.7 °F 91.3 °F 62.4 °F 39% 29.97 in 2.5 mi Calm Calm - N/A   Clear
8:55 PM 89.6 °F 90.4 °F 62.8 °F 41% 29.98 in 7.0 mi Calm Calm - N/A   Clear
9:15 PM 88.7 °F 89.4 °F 63.0 °F 42% 29.98 in 10.0 mi Calm Calm - N/A   Clear
9:35 PM 88.0 °F 88.7 °F 62.8 °F 43% 29.98 in 7.0 mi Calm Calm - N/A   Clear
9:55 PM 85.6 °F 86.8 °F 63.7 °F 48% 29.98 in 7.0 mi ESE 3.5 mph - N/A   Clear
10:15 PM 86.5 °F 87.3 °F 62.6 °F 45% 29.98 in 10.0 mi East 3.5 mph - N/A   Clear
10:35 PM 86.4 °F 87.0 °F 62.4 °F 45% 29.99 in 10.0 mi ESE 3.5 mph - N/A   Clear
10:55 PM 85.3 °F 85.9 °F 62.6 °F 46% 29.99 in 7.0 mi ESE 3.5 mph - N/A   Clear
11:15 PM 85.1 °F 85.9 °F 62.6 °F 47% 29.99 in 7.0 mi ESE 3.5 mph - N/A   Clear
11:35 PM 84.4 °F 85.2 °F 62.6 °F 48% 29.99 in 10.0 mi ESE 3.5 mph - N/A   Clear
11:55 PM 83.5 °F 84.5 °F 63.1 °F 50% 30.00 in 7.0 mi ESE 4.6 mph - N/A   Clear